Precipitable_Water
0.34 0.37 0.40 0.41 0.39 0.36 0.37 0.39 0.44 0.55 0.64 0.71 0.75 0.77 0.79 0.79 0.79 0.82 0.87 0.87 0.89 0.94 0.99 1.06 1.10 1.07 1.04 1.02 0.99 1.00 1.06 1.11 1.11 1.08 1.08 1.10 1.11 1.10 1.09 1.07 1.05 1.04 1.03 1.02 1.03 1.01 0.95 0.91 0.88 0.87 0.84 0.80 0.80 0.79 0.75 0.72 0.69 0.63 0.58 0.55 0.54 0.53 0.50 0.47 0.44 0.37 0.34 0.34 0.32 0.32 0.32 0.31 0.29 0.29 0.27 0.26 0.25 0.23 0.21 0.19 0.17 0.17 0.17 0.17 0.17
0.31 0.35 0.39 0.42 0.42 0.40 0.38 0.40 0.43 0.48 0.59 0.67 0.70 0.75 0.78 0.78 0.78 0.79 0.79 0.85 0.87 0.89 0.94 0.99 1.05 1.05 1.02 1.02 1.03 1.01 1.02 1.06 1.07 1.07 1.07 1.08 1.08 1.09 1.07 1.05 1.03 1.00 0.97 0.95 0.95 0.93 0.91 0.89 0.89 0.88 0.86 0.82 0.78 0.73 0.71 0.68 0.64 0.59 0.57 0.56 0.52 0.50 0.51 0.46 0.38 0.31 0.30 0.32 0.31 0.32 0.31 0.31 0.29 0.30 0.27 0.25 0.24 0.22 0.20 0.19 0.17 0.17 0.17 0.18 0.17
0.33 0.34 0.36 0.39 0.42 0.45 0.44 0.41 0.41 0.44 0.47 0.58 0.67 0.72 0.76 0.78 0.79 0.76 0.74 0.78 0.85 0.87 0.91 0.96 1.01 1.04 1.05 1.06 1.06 1.02 1.00 1.02 1.04 1.05 1.05 1.05 1.05 1.07 1.05 1.03 1.00 0.97 0.94 0.92 0.91 0.90 0.90 0.89 0.88 0.86 0.82 0.77 0.73 0.70 0.69 0.65 0.60 0.57 0.56 0.54 0.49 0.47 0.48 0.41 0.33 0.30 0.29 0.30 0.31 0.31 0.31 0.31 0.30 0.29 0.28 0.27 0.25 0.22 0.20 0.19 0.18 0.18 0.18 0.18 0.18
0.36 0.36 0.36 0.37 0.40 0.44 0.46 0.46 0.43 0.41 0.42 0.46 0.51 0.65 0.76 0.78 0.80 0.77 0.76 0.75 0.78 0.84 0.87 0.91 0.97 1.01 1.04 1.05 1.06 1.03 1.00 1.01 1.03 1.04 1.05 1.04 1.04 1.05 1.03 0.99 0.97 0.95 0.94 0.94 0.93 0.90 0.88 0.86 0.84 0.81 0.78 0.75 0.71 0.69 0.66 0.60 0.58 0.56 0.53 0.50 0.47 0.45 0.41 0.35 0.32 0.30 0.30 0.29 0.31 0.31 0.31 0.31 0.30 0.30 0.29 0.28 0.25 0.23 0.21 0.21 0.21 0.20 0.19 0.18 0.17
0.36 0.36 0.37 0.37 0.39 0.41 0.44 0.47 0.46 0.43 0.41 0.43 0.45 0.51 0.67 0.82 0.80 0.79 0.76 0.77 0.78 0.80 0.84 0.87 0.92 0.96 1.00 1.03 1.03 1.02 1.02 1.03 1.05 1.05 1.07 1.05 1.02 1.01 1.00 0.99 0.97 0.95 0.96 0.96 0.95 0.93 0.91 0.89 0.86 0.81 0.75 0.72 0.68 0.65 0.60 0.58 0.57 0.53 0.49 0.47 0.44 0.38 0.34 0.33 0.32 0.31 0.30 0.30 0.31 0.32 0.33 0.32 0.31 0.29 0.29 0.27 0.26 0.25 0.24 0.22 0.21 0.19 0.19 0.18 0.17
0.38 0.38 0.38 0.38 0.38 0.39 0.42 0.46 0.47 0.47 0.43 0.41 0.42 0.47 0.52 0.74 0.84 0.83 0.80 0.79 0.80 0.81 0.83 0.88 0.91 0.95 0.99 1.01 1.01 1.01 1.03 1.05 1.03 1.02 1.02 1.01 1.00 0.99 0.98 0.95 0.91 0.90 0.91 0.91 0.91 0.90 0.88 0.86 0.81 0.76 0.73 0.69 0.65 0.61 0.59 0.57 0.52 0.48 0.47 0.45 0.38 0.34 0.32 0.32 0.32 0.31 0.31 0.31 0.32 0.32 0.32 0.31 0.31 0.30 0.30 0.29 0.27 0.24 0.22 0.20 0.19 0.19 0.18 0.18 0.19
0.39 0.39 0.39 0.38 0.38 0.39 0.40 0.43 0.47 0.51 0.51 0.46 0.42 0.44 0.47 0.55 0.77 0.83 0.85 0.82 0.80 0.81 0.82 0.86 0.91 0.96 1.00 0.98 0.95 0.95 0.98 1.01 1.01 0.99 0.99 0.97 0.95 0.93 0.90 0.87 0.87 0.89 0.92 0.93 0.92 0.89 0.83 0.77 0.73 0.70 0.67 0.64 0.61 0.60 0.58 0.52 0.48 0.47 0.45 0.37 0.33 0.32 0.31 0.31 0.31 0.32 0.32 0.32 0.33 0.32 0.32 0.33 0.32 0.30 0.30 0.28 0.26 0.23 0.20 0.19 0.18 0.19 0.19 0.20 0.22
0.39 0.39 0.41 0.41 0.39 0.39 0.41 0.43 0.46 0.51 0.55 0.56 0.51 0.43 0.43 0.47 0.58 0.77 0.81 0.80 0.81 0.81 0.81 0.83 0.88 0.92 0.97 0.96 0.94 0.92 0.90 0.93 0.97 0.98 0.95 0.92 0.89 0.88 0.88 0.91 0.92 0.95 0.95 0.93 0.88 0.84 0.77 0.73 0.70 0.68 0.64 0.61 0.60 0.57 0.51 0.47 0.47 0.43 0.37 0.34 0.32 0.31 0.32 0.32 0.32 0.33 0.33 0.33 0.33 0.33 0.32 0.31 0.31 0.30 0.29 0.27 0.25 0.23 0.21 0.20 0.20 0.21 0.22 0.23 0.23
0.37 0.38 0.40 0.42 0.44 0.46 0.45 0.46 0.47 0.48 0.54 0.56 0.57 0.52 0.42 0.42 0.48 0.66 0.80 0.83 0.84 0.81 0.82 0.82 0.85 0.86 0.90 0.91 0.91 0.90 0.89 0.88 0.90 0.95 0.96 0.93 0.90 0.92 0.97 0.95 0.92 0.91 0.90 0.86 0.81 0.76 0.72 0.70 0.67 0.64 0.61 0.59 0.54 0.50 0.49 0.47 0.42 0.36 0.35 0.33 0.32 0.33 0.33 0.33 0.34 0.34 0.34 0.34 0.33 0.33 0.32 0.31 0.30 0.29 0.28 0.26 0.24 0.23 0.24 0.23 0.23 0.24 0.24 0.24 0.25
0.35 0.36 0.38 0.41 0.44 0.46 0.49 0.49 0.47 0.47 0.49 0.53 0.55 0.57 0.52 0.40 0.42 0.52 0.72 0.78 0.83 0.83 0.83 0.86 0.85 0.83 0.83 0.86 0.87 0.88 0.87 0.86 0.87 0.89 0.90 0.89 0.87 0.86 0.93 0.93 0.91 0.87 0.81 0.76 0.73 0.71 0.69 0.67 0.63 0.60 0.57 0.53 0.51 0.52 0.49 0.42 0.37 0.36 0.34 0.33 0.33 0.33 0.34 0.35 0.35 0.36 0.35 0.34 0.33 0.32 0.31 0.31 0.30 0.29 0.27 0.26 0.26 0.26 0.26 0.24 0.23 0.24 0.23 0.24 0.25
0.34 0.35 0.39 0.45 0.50 0.51 0.48 0.48 0.50 0.49 0.47 0.49 0.53 0.56 0.56 0.48 0.38 0.45 0.62 0.76 0.81 0.78 0.79 0.79 0.82 0.80 0.80 0.83 0.83 0.83 0.83 0.82 0.83 0.84 0.87 0.88 0.85 0.86 0.86 0.83 0.79 0.76 0.73 0.71 0.69 0.67 0.65 0.63 0.60 0.56 0.53 0.52 0.53 0.50 0.43 0.37 0.36 0.35 0.34 0.33 0.34 0.34 0.35 0.35 0.36 0.36 0.34 0.33 0.33 0.32 0.31 0.29 0.29 0.29 0.29 0.28 0.28 0.27 0.25 0.24 0.23 0.24 0.24 0.25 0.26
0.33 0.36 0.42 0.49 0.54 0.56 0.54 0.50 0.47 0.50 0.52 0.49 0.50 0.53 0.55 0.54 0.41 0.39 0.51 0.67 0.77 0.80 0.73 0.75 0.79 0.79 0.79 0.80 0.81 0.81 0.81 0.81 0.81 0.83 0.85 0.84 0.83 0.85 0.85 0.83 0.78 0.73 0.71 0.69 0.67 0.65 0.63 0.59 0.56 0.53 0.52 0.52 0.51 0.45 0.38 0.36 0.36 0.35 0.34 0.34 0.35 0.36 0.36 0.36 0.35 0.35 0.34 0.32 0.32 0.31 0.29 0.28 0.29 0.30 0.30 0.28 0.26 0.25 0.25 0.24 0.25 0.25 0.25 0.26 0.27
0.33 0.37 0.45 0.52 0.55 0.57 0.57 0.54 0.48 0.46 0.50 0.54 0.53 0.52 0.52 0.53 0.46 0.37 0.43 0.60 0.69 0.77 0.76 0.77 0.75 0.77 0.77 0.77 0.77 0.80 0.79 0.80 0.80 0.81 0.82 0.82 0.81 0.83 0.83 0.81 0.77 0.73 0.72 0.70 0.67 0.64 0.60 0.56 0.53 0.52 0.53 0.51 0.46 0.39 0.36 0.36 0.36 0.35 0.35 0.36 0.37 0.37 0.36 0.36 0.36 0.34 0.33 0.31 0.30 0.29 0.29 0.29 0.29 0.29 0.28 0.27 0.26 0.25 0.26 0.26 0.26 0.27 0.27 0.28 0.29
0.31 0.36 0.45 0.52 0.54 0.55 0.55 0.56 0.51 0.46 0.48 0.53 0.55 0.53 0.51 0.51 0.49 0.39 0.40 0.52 0.63 0.70 0.81 0.77 0.76 0.75 0.76 0.75 0.76 0.79 0.80 0.80 0.80 0.81 0.82 0.81 0.81 0.83 0.83 0.80 0.75 0.71 0.69 0.68 0.65 0.60 0.57 0.54 0.53 0.53 0.52 0.49 0.41 0.37 0.36 0.35 0.35 0.36 0.37 0.36 0.36 0.37 0.36 0.35 0.34 0.33 0.31 0.30 0.29 0.29 0.29 0.29 0.28 0.28 0.28 0.28 0.27 0.26 0.26 0.27 0.27 0.28 0.28 0.29 0.29
0.30 0.35 0.44 0.52 0.54 0.53 0.52 0.54 0.52 0.47 0.47 0.51 0.54 0.53 0.50 0.51 0.49 0.40 0.38 0.45 0.59 0.66 0.75 0.79 0.75 0.75 0.74 0.75 0.75 0.76 0.79 0.81 0.82 0.83 0.84 0.83 0.80 0.80 0.79 0.75 0.71 0.69 0.67 0.65 0.61 0.57 0.54 0.53 0.52 0.51 0.48 0.43 0.38 0.36 0.35 0.34 0.35 0.36 0.36 0.35 0.34 0.34 0.35 0.34 0.32 0.30 0.29 0.29 0.29 0.29 0.29 0.29 0.29 0.29 0.29 0.28 0.28 0.27 0.28 0.27 0.28 0.28 0.29 0.29 0.29
0.29 0.32 0.41 0.51 0.53 0.52 0.50 0.51 0.51 0.48 0.46 0.49 0.52 0.51 0.50 0.50 0.48 0.40 0.37 0.42 0.54 0.66 0.71 0.79 0.77 0.75 0.75 0.75 0.74 0.74 0.77 0.80 0.82 0.83 0.84 0.82 0.79 0.77 0.74 0.71 0.71 0.69 0.64 0.61 0.57 0.54 0.52 0.52 0.51 0.49 0.44 0.39 0.37 0.35 0.34 0.34 0.35 0.35 0.34 0.33 0.33 0.34 0.34 0.33 0.32 0.31 0.30 0.30 0.30 0.31 0.31 0.30 0.30 0.29 0.28 0.28 0.28 0.28 0.28 0.29 0.29 0.29 0.29 0.29 0.28
0.28 0.30 0.36 0.48 0.52 0.52 0.49 0.48 0.48 0.46 0.46 0.47 0.49 0.49 0.49 0.50 0.48 0.41 0.36 0.40 0.47 0.58 0.68 0.76 0.79 0.79 0.76 0.74 0.73 0.73 0.76 0.80 0.82 0.84 0.83 0.81 0.76 0.75 0.72 0.71 0.69 0.66 0.60 0.57 0.54 0.53 0.52 0.52 0.51 0.46 0.41 0.37 0.35 0.35 0.35 0.35 0.34 0.33 0.32 0.32 0.33 0.33 0.32 0.32 0.32 0.32 0.32 0.32 0.32 0.32 0.31 0.30 0.29 0.28 0.28 0.28 0.28 0.28 0.27 0.27 0.28 0.28 0.27 0.27 0.28
0.30 0.29 0.32 0.42 0.51 0.52 0.49 0.47 0.45 0.44 0.44 0.45 0.47 0.49 0.50 0.51 0.49 0.42 0.36 0.39 0.44 0.53 0.63 0.72 0.77 0.79 0.77 0.76 0.76 0.73 0.73 0.76 0.80 0.80 0.77 0.74 0.74 0.74 0.70 0.67 0.63 0.59 0.56 0.54 0.52 0.53 0.53 0.52 0.49 0.44 0.39 0.36 0.35 0.35 0.35 0.34 0.32 0.32 0.32 0.32 0.32 0.31 0.31 0.32 0.33 0.33 0.33 0.32 0.32 0.31 0.30 0.30 0.29 0.29 0.29 0.29 0.28 0.27 0.26 0.26 0.27 0.28 0.28 0.28 0.28
0.32 0.30 0.30 0.35 0.46 0.52 0.51 0.46 0.44 0.43 0.42 0.44 0.46 0.47 0.49 0.50 0.49 0.43 0.38 0.40 0.46 0.52 0.59 0.69 0.72 0.73 0.73 0.74 0.75 0.74 0.74 0.76 0.79 0.80 0.77 0.71 0.68 0.66 0.65 0.65 0.60 0.56 0.54 0.53 0.53 0.54 0.54 0.51 0.47 0.42 0.38 0.36 0.35 0.35 0.34 0.33 0.32 0.32 0.32 0.31 0.30 0.29 0.30 0.32 0.31 0.31 0.31 0.30 0.30 0.29 0.29 0.29 0.29 0.29 0.30 0.30 0.30 0.28 0.27 0.26 0.27 0.27 0.27 0.27 0.28
0.34 0.34 0.32 0.32 0.37 0.47 0.52 0.50 0.46 0.43 0.43 0.43 0.44 0.46 0.48 0.49 0.48 0.41 0.38 0.41 0.46 0.50 0.56 0.68 0.73 0.72 0.71 0.71 0.71 0.73 0.74 0.77 0.79 0.76 0.70 0.69 0.73 0.73 0.69 0.63 0.57 0.54 0.54 0.55 0.55 0.55 0.53 0.50 0.46 0.41 0.38 0.36 0.35 0.34 0.34 0.33 0.32 0.32 0.31 0.29 0.29 0.30 0.31 0.30 0.31 0.31 0.29 0.27 0.27 0.27 0.27 0.28 0.29 0.30 0.31 0.31 0.29 0.26 0.25 0.25 0.26 0.26 0.26 0.27 0.28
0.35 0.36 0.34 0.31 0.31 0.35 0.44 0.48 0.49 0.48 0.46 0.45 0.45 0.46 0.47 0.46 0.44 0.40 0.38 0.43 0.47 0.50 0.56 0.66 0.72 0.71 0.68 0.68 0.70 0.73 0.73 0.72 0.72 0.73 0.71 0.76 0.77 0.73 0.68 0.62 0.57 0.56 0.57 0.57 0.57 0.56 0.54 0.51 0.46 0.41 0.38 0.36 0.35 0.35 0.35 0.34 0.32 0.31 0.31 0.30 0.29 0.28 0.29 0.30 0.30 0.30 0.28 0.27 0.27 0.27 0.28 0.29 0.30 0.31 0.31 0.30 0.27 0.25 0.25 0.26 0.26 0.26 0.26 0.27 0.28
0.35 0.35 0.35 0.33 0.31 0.30 0.32 0.40 0.42 0.44 0.45 0.44 0.43 0.42 0.44 0.44 0.43 0.41 0.41 0.44 0.47 0.49 0.56 0.66 0.71 0.70 0.67 0.67 0.68 0.67 0.68 0.71 0.70 0.68 0.71 0.74 0.73 0.69 0.66 0.59 0.57 0.58 0.57 0.57 0.57 0.56 0.55 0.51 0.46 0.41 0.37 0.35 0.34 0.34 0.34 0.34 0.32 0.31 0.30 0.29 0.28 0.29 0.29 0.30 0.29 0.29 0.28 0.27 0.27 0.28 0.30 0.30 0.31 0.31 0.30 0.27 0.26 0.26 0.26 0.26 0.26 0.26 0.26 0.28 0.28
0.35 0.34 0.34 0.34 0.32 0.31 0.31 0.30 0.35 0.37 0.37 0.37 0.37 0.38 0.40 0.41 0.42 0.42 0.42 0.44 0.45 0.47 0.55 0.67 0.65 0.64 0.62 0.62 0.62 0.63 0.66 0.68 0.73 0.77 0.76 0.72 0.67 0.64 0.61 0.57 0.58 0.58 0.58 0.58 0.58 0.58 0.56 0.51 0.46 0.40 0.36 0.35 0.33 0.33 0.33 0.33 0.31 0.29 0.29 0.29 0.29 0.29 0.28 0.28 0.29 0.29 0.28 0.29 0.29 0.30 0.31 0.31 0.31 0.29 0.28 0.26 0.26 0.27 0.26 0.25 0.25 0.25 0.26 0.28 0.28
0.36 0.34 0.33 0.33 0.34 0.34 0.33 0.33 0.32 0.34 0.35 0.35 0.36 0.37 0.38 0.41 0.42 0.43 0.42 0.42 0.43 0.47 0.59 0.63 0.61 0.60 0.60 0.61 0.60 0.60 0.61 0.68 0.76 0.76 0.74 0.71 0.67 0.63 0.58 0.57 0.59 0.59 0.60 0.60 0.59 0.58 0.55 0.52 0.47 0.42 0.37 0.35 0.34 0.33 0.32 0.31 0.30 0.29 0.28 0.28 0.28 0.30 0.29 0.29 0.28 0.28 0.29 0.30 0.31 0.31 0.31 0.31 0.30 0.27 0.26 0.25 0.26 0.27 0.26 0.25 0.24 0.24 0.26 0.26 0.27
0.36 0.35 0.33 0.33 0.33 0.34 0.34 0.33 0.34 0.34 0.33 0.35 0.36 0.39 0.42 0.44 0.43 0.43 0.42 0.40 0.40 0.47 0.56 0.56 0.56 0.59 0.61 0.60 0.57 0.57 0.63 0.71 0.73 0.73 0.72 0.70 0.66 0.61 0.57 0.57 0.59 0.60 0.60 0.60 0.59 0.58 0.56 0.52 0.47 0.41 0.37 0.35 0.33 0.31 0.29 0.29 0.30 0.30 0.29 0.29 0.30 0.30 0.29 0.29 0.30 0.31 0.31 0.32 0.32 0.32 0.31 0.30 0.28 0.26 0.26 0.26 0.26 0.26 0.25 0.24 0.24 0.24 0.24 0.25 0.26
0.37 0.35 0.34 0.33 0.33 0.34 0.33 0.33 0.35 0.36 0.35 0.35 0.36 0.39 0.42 0.43 0.42 0.42 0.41 0.39 0.39 0.42 0.44 0.46 0.53 0.60 0.59 0.53 0.53 0.63 0.68 0.70 0.70 0.70 0.69 0.67 0.61 0.56 0.56 0.57 0.59 0.61 0.61 0.60 0.60 0.58 0.55 0.51 0.47 0.42 0.39 0.36 0.34 0.33 0.33 0.33 0.33 0.33 0.33 0.33 0.32 0.31 0.30 0.30 0.31 0.32 0.33 0.32 0.32 0.31 0.30 0.29 0.28 0.27 0.26 0.26 0.25 0.24 0.24 0.23 0.22 0.22 0.23 0.24 0.25
0.37 0.37 0.36 0.35 0.35 0.35 0.34 0.35 0.36 0.39 0.40 0.39 0.38 0.39 0.40 0.41 0.40 0.39 0.39 0.39 0.38 0.39 0.41 0.46 0.54 0.56 0.51 0.52 0.62 0.66 0.68 0.68 0.68 0.68 0.66 0.61 0.55 0.54 0.56 0.59 0.59 0.59 0.58 0.59 0.58 0.56 0.54 0.52 0.49 0.46 0.42 0.40 0.36 0.35 0.34 0.35 0.36 0.37 0.37 0.37 0.36 0.36 0.34 0.31 0.31 0.32 0.32 0.32 0.32 0.30 0.29 0.29 0.28 0.27 0.26 0.25 0.24 0.24 0.24 0.22 0.21 0.22 0.23 0.24 0.25
0.36 0.36 0.37 0.37 0.37 0.37 0.36 0.36 0.36 0.38 0.41 0.45 0.45 0.43 0.41 0.40 0.40 0.42 0.41 0.38 0.37 0.40 0.46 0.55 0.60 0.59 0.56 0.58 0.61 0.63 0.63 0.64 0.62 0.60 0.57 0.54 0.54 0.56 0.60 0.60 0.58 0.57 0.57 0.58 0.57 0.55 0.53 0.51 0.48 0.45 0.41 0.39 0.38 0.37 0.36 0.39 0.40 0.41 0.42 0.42 0.40 0.37 0.36 0.37 0.36 0.36 0.35 0.33 0.32 0.31 0.30 0.29 0.28 0.27 0.25 0.24 0.24 0.24 0.23 0.22 0.21 0.21 0.22 0.24 0.24
0.39 0.37 0.37 0.38 0.38 0.39 0.38 0.38 0.38 0.39 0.40 0.43 0.48 0.52 0.53 0.52 0.50 0.51 0.55 0.55 0.53 0.56 0.60 0.62 0.64 0.62 0.58 0.56 0.59 0.59 0.59 0.59 0.60 0.61 0.60 0.58 0.56 0.59 0.60 0.59 0.58 0.58 0.58 0.57 0.55 0.53 0.52 0.50 0.48 0.47 0.45 0.43 0.40 0.37 0.36 0.39 0.41 0.44 0.44 0.43 0.41 0.41 0.40 0.40 0.39 0.38 0.37 0.35 0.33 0.31 0.30 0.28 0.27 0.26 0.25 0.24 0.24 0.23 0.23 0.22 0.21 0.22 0.22 0.23 0.24
0.38 0.39 0.37 0.36 0.37 0.39 0.39 0.40 0.41 0.42 0.44 0.45 0.48 0.51 0.56 0.60 0.63 0.63 0.64 0.67 0.67 0.66 0.66 0.64 0.64 0.63 0.59 0.59 0.63 0.66 0.66 0.67 0.65 0.61 0.59 0.57 0.58 0.61 0.61 0.60 0.59 0.58 0.58 0.57 0.55 0.53 0.52 0.51 0.51 0.51 0.50 0.48 0.46 0.44 0.43 0.43 0.45 0.47 0.47 0.47 0.47 0.46 0.44 0.42 0.40 0.39 0.38 0.35 0.33 0.31 0.30 0.29 0.28 0.27 0.26 0.25 0.23 0.23 0.23 0.22 0.21 0.22 0.21 0.22 0.23
0.36 0.38 0.40 0.37 0.36 0.37 0.38 0.40 0.42 0.43 0.45 0.46 0.48 0.49 0.51 0.54 0.59 0.61 0.63 0.63 0.62 0.61 0.60 0.61 0.60 0.59 0.58 0.57 0.59 0.62 0.64 0.62 0.62 0.62 0.61 0.61 0.61 0.61 0.61 0.60 0.59 0.58 0.58 0.56 0.54 0.53 0.52 0.51 0.52 0.53 0.52 0.51 0.49 0.49 0.49 0.48 0.48 0.47 0.47 0.48 0.47 0.45 0.44 0.42 0.40 0.40 0.38 0.37 0.35 0.33 0.31 0.30 0.29 0.29 0.27 0.25 0.24 0.23 0.22 0.22 0.22 0.21 0.21 0.22 0.22
0.39 0.36 0.37 0.40 0.39 0.37 0.37 0.37 0.39 0.41 0.43 0.45 0.46 0.47 0.48 0.49 0.51 0.55 0.56 0.57 0.59 0.59 0.60 0.61 0.62 0.63 0.64 0.65 0.65 0.64 0.63 0.62 0.61 0.60 0.61 0.64 0.64 0.63 0.61 0.60 0.59 0.57 0.56 0.55 0.51 0.50 0.50 0.50 0.51 0.51 0.51 0.49 0.50 0.51 0.50 0.49 0.50 0.50 0.49 0.48 0.47 0.45 0.43 0.41 0.41 0.40 0.38 0.37 0.35 0.34 0.32 0.31 0.30 0.28 0.27 0.25 0.24 0.23 0.23 0.22 0.22 0.22 0.21 0.21 0.22
0.46 0.41 0.37 0.37 0.39 0.40 0.38 0.37 0.36 0.37 0.38 0.40 0.42 0.44 0.45 0.46 0.48 0.51 0.55 0.58 0.58 0.58 0.58 0.58 0.58 0.59 0.60 0.62 0.62 0.61 0.61 0.61 0.61 0.61 0.62 0.65 0.65 0.63 0.62 0.60 0.59 0.58 0.57 0.54 0.51 0.50 0.50 0.51 0.52 0.51 0.50 0.48 0.50 0.51 0.51 0.52 0.51 0.50 0.49 0.47 0.46 0.45 0.44 0.43 0.42 0.39 0.38 0.37 0.35 0.33 0.32 0.31 0.30 0.28 0.27 0.26 0.25 0.24 0.23 0.23 0.23 0.22 0.22 0.21 0.22
0.53 0.50 0.43 0.38 0.36 0.37 0.39 0.39 0.37 0.37 0.38 0.38 0.39 0.40 0.42 0.45 0.47 0.48 0.48 0.50 0.52 0.55 0.56 0.56 0.57 0.57 0.58 0.59 0.60 0.61 0.62 0.62 0.63 0.63 0.63 0.63 0.64 0.64 0.63 0.62 0.61 0.60 0.57 0.54 0.53 0.51 0.52 0.52 0.52 0.50 0.49 0.51 0.53 0.55 0.54 0.53 0.51 0.50 0.49 0.48 0.47 0.46 0.45 0.43 0.40 0.38 0.37 0.36 0.34 0.33 0.32 0.32 0.31 0.28 0.27 0.26 0.26 0.25 0.24 0.23 0.23 0.22 0.22 0.22 0.22
0.55 0.55 0.54 0.48 0.40 0.36 0.36 0.38 0.38 0.38 0.38 0.37 0.38 0.39 0.41 0.42 0.44 0.46 0.47 0.48 0.49 0.50 0.52 0.56 0.59 0.59 0.59 0.60 0.62 0.63 0.63 0.64 0.64 0.65 0.65 0.64 0.64 0.65 0.63 0.59 0.56 0.56 0.54 0.52 0.51 0.51 0.51 0.50 0.50 0.49 0.51 0.53 0.55 0.55 0.54 0.53 0.52 0.51 0.50 0.48 0.47 0.45 0.43 0.40 0.38 0.37 0.36 0.35 0.34 0.33 0.32 0.31 0.30 0.29 0.28 0.26 0.25 0.24 0.24 0.24 0.23 0.23 0.23 0.22 0.22
0.56 0.55 0.56 0.56 0.53 0.45 0.38 0.36 0.36 0.37 0.38 0.38 0.39 0.39 0.41 0.41 0.41 0.42 0.44 0.47 0.50 0.51 0.53 0.56 0.58 0.61 0.62 0.63 0.63 0.63 0.64 0.64 0.63 0.62 0.62 0.62 0.62 0.61 0.57 0.55 0.54 0.53 0.52 0.52 0.51 0.50 0.50 0.48 0.47 0.50 0.54 0.56 0.58 0.57 0.55 0.53 0.52 0.51 0.50 0.48 0.46 0.43 0.40 0.38 0.36 0.35 0.34 0.33 0.32 0.32 0.31 0.31 0.30 0.29 0.28 0.27 0.26 0.25 0.24 0.24 0.23 0.23 0.23 0.23 0.23
0.57 0.56 0.56 0.56 0.56 0.55 0.50 0.43 0.37 0.36 0.37 0.38 0.38 0.39 0.39 0.40 0.40 0.39 0.39 0.40 0.41 0.44 0.47 0.50 0.53 0.55 0.58 0.60 0.61 0.61 0.62 0.62 0.62 0.62 0.62 0.61 0.61 0.59 0.57 0.56 0.54 0.54 0.53 0.52 0.51 0.50 0.49 0.49 0.52 0.54 0.56 0.57 0.57 0.56 0.55 0.52 0.52 0.51 0.50 0.47 0.43 0.39 0.36 0.35 0.34 0.33 0.32 0.31 0.31 0.31 0.30 0.30 0.30 0.30 0.29 0.27 0.26 0.25 0.24 0.24 0.24 0.24 0.24 0.24 0.23
0.57 0.57 0.57 0.57 0.56 0.56 0.55 0.53 0.48 0.41 0.37 0.36 0.36 0.37 0.37 0.37 0.37 0.37 0.37 0.37 0.38 0.38 0.39 0.41 0.44 0.45 0.47 0.50 0.57 0.60 0.62 0.62 0.62 0.60 0.59 0.58 0.57 0.55 0.55 0.55 0.55 0.53 0.53 0.53 0.52 0.51 0.50 0.51 0.53 0.55 0.57 0.58 0.57 0.56 0.54 0.52 0.51 0.49 0.46 0.41 0.38 0.36 0.35 0.33 0.32 0.31 0.31 0.30 0.30 0.30 0.30 0.30 0.30 0.29 0.29 0.28 0.26 0.25 0.24 0.24 0.24 0.24 0.24 0.24 0.24
0.58 0.58 0.58 0.57 0.56 0.56 0.56 0.55 0.55 0.52 0.47 0.41 0.36 0.35 0.34 0.34 0.34 0.34 0.34 0.34 0.34 0.34 0.34 0.34 0.35 0.37 0.39 0.43 0.45 0.49 0.50 0.51 0.52 0.53 0.54 0.55 0.55 0.55 0.55 0.54 0.54 0.52 0.52 0.50 0.50 0.50 0.50 0.51 0.54 0.57 0.58 0.58 0.57 0.55 0.54 0.52 0.50 0.44 0.39 0.37 0.35 0.34 0.32 0.31 0.30 0.30 0.30 0.30 0.30 0.30 0.30 0.30 0.30 0.29 0.29 0.28 0.27 0.26 0.25 0.24 0.24 0.24 0.24 0.24 0.24
0.57 0.57 0.58 0.58 0.57 0.57 0.57 0.56 0.56 0.56 0.54 0.51 0.46 0.41 0.37 0.34 0.33 0.32 0.32 0.32 0.31 0.30 0.30 0.30 0.30 0.30 0.33 0.36 0.38 0.42 0.42 0.42 0.44 0.46 0.48 0.50 0.52 0.53 0.54 0.53 0.52 0.50 0.48 0.47 0.48 0.49 0.50 0.52 0.56 0.58 0.59 0.58 0.57 0.55 0.53 0.48 0.42 0.38 0.36 0.34 0.33 0.32 0.31 0.30 0.29 0.29 0.29 0.30 0.30 0.30 0.30 0.30 0.30 0.29 0.29 0.28 0.27 0.26 0.25 0.25 0.25 0.25 0.24 0.24 0.24
0.57 0.57 0.57 0.58 0.58 0.57 0.56 0.56 0.56 0.57 0.57 0.56 0.54 0.51 0.46 0.42 0.39 0.37 0.35 0.34 0.32 0.32 0.31 0.31 0.30 0.31 0.32 0.31 0.31 0.33 0.34 0.38 0.43 0.46 0.47 0.48 0.49 0.50 0.50 0.50 0.50 0.49 0.48 0.48 0.48 0.50 0.52 0.55 0.58 0.59 0.59 0.56 0.52 0.48 0.44 0.40 0.37 0.36 0.34 0.33 0.32 0.31 0.31 0.30 0.29 0.29 0.30 0.30 0.31 0.31 0.31 0.30 0.30 0.29 0.28 0.28 0.29 0.27 0.26 0.25 0.25 0.24 0.24 0.24 0.24
0.57 0.56 0.56 0.57 0.57 0.57 0.56 0.56 0.56 0.56 0.57 0.57 0.57 0.56 0.54 0.51 0.48 0.45 0.43 0.42 0.40 0.38 0.35 0.34 0.33 0.33 0.33 0.33 0.32 0.32 0.30 0.28 0.28 0.31 0.35 0.38 0.41 0.42 0.44 0.44 0.45 0.45 0.46 0.47 0.49 0.50 0.53 0.56 0.57 0.55 0.51 0.47 0.44 0.40 0.38 0.36 0.35 0.34 0.33 0.32 0.31 0.30 0.30 0.29 0.29 0.29 0.30 0.31 0.31 0.31 0.31 0.30 0.30 0.29 0.29 0.29 0.28 0.27 0.26 0.25 0.25 0.25 0.24 0.24 0.24
0.57 0.57 0.57 0.56 0.56 0.55 0.55 0.55 0.56 0.55 0.55 0.55 0.56 0.58 0.59 0.57 0.54 0.51 0.49 0.47 0.46 0.45 0.44 0.42 0.41 0.39 0.37 0.35 0.34 0.33 0.33 0.32 0.30 0.28 0.26 0.26 0.28 0.29 0.31 0.33 0.35 0.38 0.41 0.44 0.46 0.48 0.50 0.51 0.49 0.47 0.44 0.42 0.40 0.37 0.36 0.35 0.34 0.33 0.32 0.31 0.30 0.30 0.29 0.29 0.29 0.30 0.31 0.31 0.31 0.31 0.31 0.31 0.30 0.29 0.29 0.28 0.29 0.28 0.27 0.26 0.25 0.24 0.24 0.24 0.24
0.52 0.54 0.57 0.57 0.57 0.56 0.55 0.55 0.54 0.55 0.55 0.55 0.55 0.56 0.57 0.59 0.58 0.56 0.53 0.51 0.49 0.48 0.47 0.47 0.47 0.45 0.44 0.43 0.40 0.37 0.35 0.34 0.33 0.33 0.33 0.31 0.30 0.29 0.30 0.32 0.34 0.37 0.39 0.41 0.44 0.47 0.48 0.47 0.45 0.43 0.41 0.40 0.38 0.37 0.36 0.35 0.34 0.33 0.32 0.31 0.30 0.29 0.29 0.29 0.30 0.31 0.32 0.32 0.32 0.31 0.31 0.31 0.30 0.29 0.28 0.29 0.29 0.28 0.27 0.26 0.25 0.24 0.24 0.24 0.23
0.52 0.51 0.51 0.52 0.55 0.56 0.56 0.55 0.55 0.54 0.54 0.54 0.54 0.55 0.57 0.58 0.58 0.58 0.57 0.55 0.53 0.52 0.51 0.50 0.50 0.49 0.48 0.47 0.45 0.44 0.42 0.41 0.39 0.38 0.37 0.36 0.36 0.36 0.36 0.36 0.37 0.38 0.40 0.42 0.45 0.47 0.47 0.45 0.42 0.40 0.38 0.37 0.37 0.36 0.35 0.34 0.34 0.33 0.33 0.32 0.31 0.30 0.30 0.31 0.32 0.33 0.33 0.33 0.32 0.31 0.31 0.30 0.30 0.29 0.29 0.29 0.29 0.28 0.27 0.26 0.25 0.24 0.24 0.23 0.23
0.51 0.51 0.50 0.50 0.50 0.51 0.53 0.54 0.55 0.55 0.54 0.53 0.53 0.54 0.55 0.57 0.58 0.58 0.57 0.56 0.55 0.54 0.53 0.53 0.52 0.51 0.50 0.49 0.49 0.47 0.47 0.46 0.45 0.44 0.43 0.42 0.41 0.41 0.41 0.41 0.41 0.41 0.42 0.44 0.47 0.48 0.47 0.43 0.40 0.38 0.36 0.36 0.35 0.35 0.35 0.34 0.34 0.34 0.34 0.34 0.33 0.33 0.33 0.34 0.34 0.34 0.34 0.33 0.33 0.32 0.32 0.31 0.30 0.29 0.29 0.29 0.29 0.28 0.27 0.26 0.25 0.25 0.24 0.24 0.23
0.50 0.50 0.50 0.49 0.48 0.48 0.49 0.52 0.53 0.54 0.54 0.54 0.54 0.54 0.55 0.56 0.58 0.59 0.60 0.58 0.56 0.55 0.54 0.54 0.53 0.53 0.53 0.52 0.52 0.51 0.50 0.49 0.48 0.47 0.47 0.46 0.46 0.45 0.45 0.45 0.45 0.46 0.47 0.49 0.50 0.50 0.47 0.43 0.40 0.38 0.36 0.36 0.35 0.35 0.35 0.35 0.35 0.35 0.35 0.35 0.35 0.35 0.35 0.35 0.35 0.35 0.35 0.35 0.34 0.33 0.32 0.31 0.30 0.29 0.29 0.29 0.29 0.28 0.27 0.26 0.25 0.25 0.24 0.24 0.23
0.48 0.49 0.49 0.49 0.49 0.48 0.48 0.49 0.50 0.52 0.53 0.54 0.54 0.54 0.54 0.55 0.57 0.58 0.59 0.60 0.60 0.59 0.56 0.55 0.54 0.53 0.53 0.53 0.53 0.53 0.53 0.52 0.52 0.51 0.50 0.50 0.50 0.49 0.49 0.49 0.49 0.50 0.50 0.51 0.51 0.50 0.46 0.42 0.40 0.38 0.37 0.36 0.36 0.35 0.36 0.36 0.36 0.36 0.36 0.36 0.36 0.36 0.36 0.36 0.36 0.36 0.36 0.35 0.34 0.33 0.33 0.31 0.30 0.30 0.30 0.29 0.29 0.28 0.27 0.26 0.26 0.25 0.24 0.24 0.23
0.46 0.45 0.46 0.46 0.46 0.47 0.47 0.47 0.48 0.48 0.50 0.52 0.53 0.53 0.54 0.54 0.55 0.56 0.57 0.58 0.59 0.60 0.60 0.58 0.56 0.54 0.53 0.52 0.53 0.53 0.53 0.53 0.52 0.52 0.52 0.52 0.52 0.52 0.52 0.52 0.52 0.52 0.51 0.51 0.50 0.46 0.43 0.40 0.39 0.38 0.37 0.37 0.36 0.36 0.36 0.36 0.36 0.36 0.36 0.36 0.37 0.37 0.38 0.37 0.37 0.37 0.36 0.36 0.35 0.34 0.33 0.32 0.30 0.30 0.30 0.30 0.29 0.29 0.28 0.27 0.26 0.25 0.24 0.24 0.24
0.44 0.44 0.43 0.43 0.43 0.44 0.45 0.45 0.46 0.46 0.47 0.48 0.49 0.50 0.52 0.53 0.53 0.53 0.54 0.55 0.56 0.56 0.58 0.59 0.60 0.59 0.56 0.53 0.52 0.52 0.52 0.52 0.52 0.52 0.52 0.52 0.52 0.52 0.52 0.52 0.52 0.51 0.50 0.48 0.46 0.43 0.41 0.39 0.38 0.38 0.37 0.37 0.37 0.37 0.37 0.37 0.37 0.37 0.37 0.38 0.38 0.39 0.38 0.38 0.38 0.37 0.36 0.35 0.34 0.34 0.33 0.32 0.31 0.31 0.30 0.30 0.30 0.29 0.28 0.27 0.26 0.25 0.25 0.24 0.24
0.43 0.43 0.42 0.42 0.41 0.41 0.41 0.41 0.42 0.43 0.44 0.45 0.46 0.46 0.47 0.49 0.50 0.52 0.52 0.53 0.53 0.54 0.55 0.56 0.58 0.59 0.59 0.57 0.54 0.52 0.51 0.51 0.52 0.52 0.51 0.51 0.51 0.50 0.50 0.50 0.50 0.49 0.47 0.45 0.42 0.40 0.39 0.38 0.38 0.37 0.37 0.37 0.37 0.38 0.38 0.38 0.38 0.38 0.39 0.39 0.39 0.39 0.39 0.38 0.38 0.37 0.36 0.36 0.35 0.34 0.33 0.32 0.31 0.31 0.30 0.30 0.30 0.29 0.28 0.28 0.27 0.26 0.25 0.24 0.24
Wind_Speed
35 40 44 47 50 52 55 57 58 58 57 56 55 54 54 53 51 49 48 47 46 46 47 46 45 45 45 46 47 48 49 47 45 45 43 42 42 41 41 40 39 37 37 36 35 34 34 33 31 31 30 29 27 26 26 26 26 26 26 26 25 24 23 22 21 20 20 21 21 21 21 21 22 23 24 25 26 28 29 29 30 31 32 32 33
33 37 40 44 48 51 53 56 58 59 59 58 57 56 55 54 53 51 50 48 46 45 45 46 46 44 43 44 45 46 48 47 46 45 44 43 41 41 41 41 39 38 36 35 34 33 33 32 31 30 29 28 27 26 26 26 26 26 26 25 24 23 23 21 20 19 19 20 20 21 21 22 23 24 25 26 27 28 29 30 31 31 32 32 32
34 36 39 43 46 48 51 54 56 59 60 60 59 58 57 56 55 53 51 50 48 46 44 44 46 45 43 43 45 45 46 47 46 46 45 43 42 41 41 40 40 38 36 35 34 33 32 32 31 30 28 27 27 27 27 27 26 26 25 25 24 23 22 21 20 19 19 20 20 21 22 23 24 25 25 27 27 28 29 30 31 32 32 32 33
34 36 39 42 45 47 49 52 54 57 59 60 61 60 59 58 57 55 53 52 50 48 45 43 43 45 44 43 43 44 44 45 47 47 45 43 42 41 40 39 39 37 36 35 34 32 32 31 30 29 28 28 28 28 28 27 26 25 24 24 23 22 21 21 21 20 19 20 21 22 22 23 24 25 26 27 27 29 30 31 31 32 32 32 32
35 37 39 41 44 47 49 51 53 56 58 60 60 60 59 59 58 57 55 53 52 50 47 44 43 43 43 42 41 41 42 42 44 46 45 42 41 40 39 38 37 36 36 35 34 32 32 31 30 29 29 29 29 28 27 27 26 25 24 23 22 22 21 21 20 20 20 20 21 22 22 23 24 25 26 27 28 29 30 31 31 31 31 32 31
36 38 39 40 42 46 48 50 52 54 56 58 59 60 60 59 58 57 56 55 53 51 49 47 44 42 40 40 40 40 40 40 40 42 43 42 40 39 38 37 36 35 35 34 33 32 31 30 30 30 29 29 28 27 27 26 25 24 23 22 22 21 20 20 20 20 20 21 21 22 23 24 25 26 27 28 29 29 30 30 30 30 30 30 31
35 37 37 37 39 42 46 49 51 53 55 56 57 59 60 60 59 57 57 56 54 52 50 48 47 44 40 38 38 38 39 39 38 38 39 39 39 38 38 37 35 35 34 33 33 32 31 30 30 30 30 29 28 27 26 25 24 24 23 22 21 20 20 20 20 20 21 21 21 22 23 24 25 26 27 27 28 29 29 29 29 29 29 30 30
34 34 33 33 34 37 42 46 49 52 53 55 56 58 59 60 60 58 57 56 55 53 51 49 48 47 43 40 38 36 36 37 38 38 37 38 39 39 37 35 34 34 33 32 32 31 31 30 30 29 29 28 27 26 26 25 24 23 22 21 21 20 20 20 20 21 21 21 21 22 23 24 25 26 27 27 28 28 28 28 28 29 29 30 31
31 30 30 30 31 33 37 42 46 50 52 53 55 56 57 59 60 59 58 56 54 53 52 50 49 48 46 44 41 37 35 34 35 36 37 38 38 37 36 34 34 33 32 32 31 31 30 29 29 29 28 27 26 26 25 24 23 22 22 21 20 20 20 20 21 21 21 21 22 23 24 25 25 26 26 27 27 27 27 28 28 29 30 30 31
29 27 27 28 29 31 33 37 42 47 50 52 54 55 56 57 59 59 59 57 55 53 52 51 50 48 47 47 44 40 37 35 34 34 36 36 36 35 34 34 33 33 31 31 30 30 29 29 28 28 27 26 25 25 24 23 23 22 21 21 21 21 21 21 21 21 21 22 23 23 24 25 25 26 26 26 26 27 27 27 28 29 29 30 32
26 26 26 27 28 29 32 34 38 43 48 51 52 54 55 56 57 58 59 58 55 53 53 52 51 49 48 48 46 43 40 38 36 35 35 35 34 34 33 33 33 32 31 30 30 29 29 28 27 26 26 25 24 24 23 23 22 21 21 21 21 22 22 21 21 22 22 23 24 24 25 25 25 26 26 26 26 27 27 28 28 29 30 31 32
25 24 24 25 26 28 30 33 35 39 44 48 51 53 54 55 56 57 58 58 56 54 53 52 51 49 48 48 47 45 43 42 40 38 36 35 34 34 33 32 32 31 30 29 29 28 28 27 26 26 25 25 24 23 23 22 22 21 21 21 21 22 22 22 22 23 23 24 24 25 25 25 25 25 26 26 26 27 27 28 29 30 31 31 32
24 23 23 23 25 26 28 30 33 36 40 45 49 52 53 54 55 56 57 57 57 55 53 51 51 50 49 48 48 46 44 43 42 40 38 36 34 34 33 32 31 30 29 28 28 27 27 26 26 25 25 24 24 23 23 22 22 21 21 21 21 21 22 22 23 23 24 25 25 25 26 25 25 26 26 26 26 26 27 28 29 30 31 32 33
23 22 21 22 22 23 24 27 30 33 37 41 46 50 52 52 53 54 55 56 56 55 53 51 50 50 49 48 48 46 45 44 43 42 40 38 36 35 34 32 31 30 29 28 28 27 27 26 26 26 25 25 24 23 23 22 22 22 22 22 22 22 22 22 23 23 24 25 25 26 26 26 26 26 26 25 26 26 27 28 29 30 31 32 33
22 21 20 19 19 19 21 24 28 31 34 38 42 46 49 50 51 52 53 54 55 55 54 52 50 50 49 49 48 47 45 45 44 43 42 40 38 37 35 33 33 31 30 29 29 28 28 27 27 26 26 25 24 24 23 23 22 22 22 22 22 23 23 23 24 24 25 25 26 26 26 25 25 25 25 25 26 27 28 29 29 30 32 33 34
21 20 19 17 16 16 18 21 25 29 31 35 39 43 46 47 48 50 51 52 53 54 54 52 50 49 49 48 48 47 46 45 45 44 43 41 39 38 36 35 34 32 31 31 30 29 29 28 27 27 26 25 25 24 24 23 23 23 23 23 23 23 24 24 24 25 25 25 25 25 25 25 25 24 25 25 26 26 27 29 30 31 32 34 35
20 19 18 16 15 14 15 17 21 26 30 33 37 40 43 44 45 47 49 50 51 53 54 53 51 50 50 48 47 47 45 45 45 45 44 43 41 39 38 36 35 33 32 32 31 30 29 28 28 27 27 26 25 25 25 24 24 24 24 24 24 24 24 24 25 25 24 24 24 24 24 24 24 24 25 25 26 26 28 29 30 32 33 34 36
19 18 16 14 13 12 12 14 18 23 27 31 35 37 40 42 43 45 47 48 49 51 52 52 50 50 50 49 48 47 45 45 45 45 45 44 43 41 39 38 36 35 33 32 31 30 29 29 28 27 27 27 27 26 26 25 25 25 25 24 24 24 25 25 25 24 24 24 24 23 24 24 24 24 25 26 26 27 29 30 31 32 34 35 37
18 17 15 13 11 10 10 11 15 19 24 29 32 35 38 40 41 43 45 47 47 48 50 50 48 49 51 50 49 48 45 45 45 44 44 44 43 41 40 38 36 35 33 32 31 30 30 29 29 28 28 27 28 27 27 26 26 26 26 25 25 25 25 25 25 24 24 24 24 24 24 24 24 25 26 26 27 28 30 32 33 34 35 36 37
16 16 15 12 10 9 10 11 13 16 21 25 29 32 35 37 39 41 43 45 45 46 48 48 45 46 50 50 49 48 46 45 44 44 44 44 42 41 39 37 35 34 33 32 31 31 30 30 29 29 29 28 29 28 28 27 27 27 26 26 26 26 25 25 25 24 24 24 24 24 24 24 25 26 27 27 28 29 31 33 34 35 36 37 38
15 15 14 11 9 8 9 10 12 14 18 22 25 29 31 34 37 40 42 44 44 45 46 44 41 44 47 47 46 46 45 45 45 44 44 44 42 41 39 37 35 34 33 32 32 31 30 30 29 30 30 29 29 29 28 28 27 27 27 27 26 25 25 25 25 24 24 24 24 24 25 25 26 27 27 28 30 31 32 34 35 36 36 37 38
14 13 12 10 7 6 6 9 12 14 16 19 23 26 29 32 35 38 40 42 42 44 45 42 40 42 45 44 44 44 44 44 44 44 44 43 42 41 39 36 35 34 33 32 32 31 31 30 30 30 30 30 30 29 29 28 28 27 27 27 26 25 25 25 24 24 24 24 25 25 26 27 27 28 29 30 31 32 33 34 35 35 36 38 39
13 12 10 8 6 4 4 7 10 13 16 18 21 24 27 30 33 36 38 40 41 43 44 42 41 43 44 43 43 43 43 43 43 43 43 42 42 40 38 36 35 34 34 33 33 31 31 30 30 30 31 30 30 29 29 28 28 28 27 27 26 25 25 24 24 24 24 25 26 27 27 28 29 29 30 31 32 32 32 33 34 35 35 37 38
13 11 10 8 6 5 4 5 7 11 15 18 20 22 25 28 31 34 37 39 41 42 43 42 41 42 42 42 43 43 43 42 42 42 43 42 41 40 39 37 36 35 34 34 33 32 31 31 30 31 31 30 30 30 29 29 28 28 27 27 26 25 24 24 24 25 25 26 27 28 29 29 30 30 31 31 31 31 32 32 33 34 34 36 37
12 11 10 8 7 6 5 5 6 8 12 16 19 21 24 26 29 32 35 37 40 41 41 41 41 40 40 42 42 42 42 41 41 42 42 42 41 41 39 38 38 36 35 34 33 32 32 31 31 31 31 30 30 29 29 29 28 28 27 27 26 25 25 25 25 26 27 27 28 29 29 30 30 31 31 31 31 31 31 32 32 33 34 35 36
11 11 10 8 8 7 6 6 7 8 10 13 16 19 22 24 27 30 33 35 37 38 39 40 40 39 39 40 40 40 41 41 41 41 42 41 41 40 40 39 39 37 36 34 33 33 32 31 31 31 31 31 30 29 29 29 29 28 28 27 27 26 26 26 26 27 27 28 29 29 30 30 31 31 30 30 31 31 31 32 33 33 34 35 36
11 11 10 9 8 8 8 8 9 10 11 13 15 16 19 22 25 28 31 33 34 36 37 38 38 38 39 39 39 39 40 40 40 40 40 40 40 40 40 39 39 37 36 35 34 33 32 32 31 31 31 31 30 30 29 29 29 29 29 28 28 28 28 27 27 28 28 29 29 30 30 30 30 30 30 31 31 31 31 32 33 34 34 35 36
12 11 11 10 10 9 9 9 10 11 12 15 16 17 19 21 23 26 29 32 33 34 34 35 36 37 38 38 38 39 39 39 39 40 40 40 40 40 40 40 38 37 36 35 34 33 32 32 31 31 31 30 30 30 30 29 29 29 29 29 29 29 28 28 28 29 29 30 30 30 30 30 31 31 30 31 31 31 31 32 33 33 34 35 35
13 13 12 12 12 11 10 11 11 11 12 14 16 18 20 23 24 26 28 30 33 34 33 33 35 37 37 37 37 38 39 39 39 39 40 41 41 41 41 40 39 38 37 36 35 33 33 32 32 32 31 31 30 30 30 30 30 30 30 30 29 29 29 29 29 30 30 30 30 30 30 30 30 30 30 30 31 31 31 32 32 33 34 35 35
15 14 14 14 13 13 12 12 12 12 13 14 15 17 19 22 24 26 27 29 32 33 34 34 35 36 36 37 37 38 37 37 37 38 39 40 41 41 41 41 40 39 38 37 36 35 34 34 34 34 33 33 32 31 31 32 32 31 31 31 31 31 31 31 31 30 30 30 31 31 30 30 30 30 30 30 31 31 31 31 32 33 33 34 34
17 16 16 16 15 15 15 14 14 14 14 14 15 16 17 20 22 24 26 27 30 32 33 34 34 35 36 36 37 38 37 36 36 37 38 40 41 41 41 40 40 39 39 38 37 37 36 36 36 35 35 34 33 33 33 33 33 32 32 32 32 32 33 32 31 31 31 31 31 31 30 30 30 30 30 31 31 31 31 31 32 33 33 34 34
19 18 18 17 17 17 17 17 17 16 16 16 17 17 18 19 21 23 26 27 29 31 33 33 34 35 35 36 36 37 37 36 36 37 38 39 40 40 40 40 40 40 40 39 39 38 37 36 36 35 35 34 34 34 34 34 34 33 33 33 33 34 34 33 32 31 31 31 31 31 31 31 31 31 31 31 31 31 31 31 32 33 33 33 33
22 21 20 19 19 19 19 19 19 19 19 19 19 19 20 21 22 23 25 27 29 31 33 34 35 35 35 36 36 36 37 37 37 37 38 39 40 40 40 41 41 41 41 41 40 39 38 37 37 36 35 35 35 35 36 35 35 35 35 35 35 34 34 33 32 32 32 32 31 31 31 31 31 31 31 31 31 31 31 31 32 32 32 33 33
24 23 22 22 21 21 21 21 21 21 21 21 21 21 22 22 23 24 25 27 29 30 32 33 35 35 36 36 37 37 37 37 38 38 38 39 40 40 40 40 41 42 42 41 40 39 38 37 37 36 36 36 36 36 37 36 36 36 36 36 35 34 33 33 33 33 32 32 32 32 31 31 31 31 31 31 31 31 31 31 32 32 32 32 32
25 25 25 25 24 24 23 23 23 23 23 23 23 23 23 24 24 25 26 27 28 30 31 33 34 36 36 37 37 38 38 38 38 38 38 39 40 40 40 40 40 41 41 40 40 39 38 38 37 37 37 37 37 38 38 37 37 37 37 36 36 35 34 33 33 33 33 32 32 32 32 32 32 32 31 31 31 31 31 31 31 31 31 31 31
26 26 26 26 26 26 26 25 25 25 25 25 25 25 25 25 25 26 26 27 28 29 31 32 33 35 37 37 37 38 38 39 39 38 38 39 39 40 40 40 39 40 40 40 39 39 39 38 38 38 38 38 39 39 39 38 38 38 38 37 36 35 35 34 34 34 33 33 32 32 32 32 32 32 31 31 31 31 32 32 31 31 31 31 30
28 27 27 27 28 28 28 28 28 27 27 27 27 27 27 27 27 27 27 28 29 29 30 31 32 34 35 37 38 38 39 39 39 39 39 39 40 40 40 40 40 39 40 40 40 40 40 39 39 39 39 39 40 40 39 39 39 39 38 38 37 36 36 35 35 34 33 33 33 33 32 32 32 31 31 31 31 31 31 31 31 30 30 30 30
28 28 28 28 29 29 29 29 30 30 29 29 29 29 29 29 29 29 29 30 30 31 31 32 32 33 34 35 37 38 38 39 39 39 39 40 40 40 40 40 40 40 40 40 40 41 40 40 41 41 40 40 40 40 39 39 39 39 38 38 38 37 36 36 35 35 34 33 33 33 32 32 32 31 31 31 31 31 31 31 30 30 29 29 29
28 29 29 29 29 29 30 30 31 31 31 31 31 31 31 31 31 31 31 31 32 32 32 33 33 34 34 35 36 37 38 39 39 40 40 40 41 41 41 41 41 41 41 41 41 41 41 41 41 41 41 41 40 40 40 40 39 39 39 38 38 37 37 36 35 35 34 33 33 33 33 32 32 31 31 31 31 31 31 30 30 29 29 28 28
28 28 29 30 30 30 30 30 31 32 32 33 33 33 33 33 33 33 33 33 33 33 33 34 34 34 34 35 36 37 38 39 40 40 41 41 42 42 42 42 42 42 41 41 41 41 41 41 41 41 41 41 41 41 40 40 40 40 39 39 39 38 37 37 36 35 34 34 33 33 33 33 32 31 31 31 31 31 31 31 30 29 28 28 28
27 28 28 29 30 30 30 30 31 32 32 33 34 35 35 35 34 34 34 35 35 35 35 35 35 35 35 36 37 38 38 39 39 40 41 42 42 43 43 43 43 43 42 42 41 41 42 42 42 42 42 41 41 41 41 41 41 41 40 40 39 38 38 37 36 36 35 34 34 34 33 33 32 32 31 31 31 31 31 31 30 29 28 28 28
28 28 28 28 29 30 30 31 31 31 32 33 34 35 36 36 36 36 36 36 36 36 37 37 37 37 37 39 39 40 40 39 39 40 41 41 42 43 43 43 43 43 43 43 42 42 43 43 43 43 42 42 42 42 41 41 42 41 41 41 40 39 38 38 37 36 35 35 35 34 34 33 32 32 32 32 31 31 31 30 29 29 28 28 28
28 28 28 28 29 29 30 31 31 32 33 33 34 35 36 37 37 38 38 38 38 38 38 38 38 38 39 40 41 41 41 41 41 41 41 41 42 42 42 43 43 43 43 43 43 43 43 43 43 43 43 43 42 42 42 42 42 42 41 41 40 40 39 38 37 37 36 36 35 35 34 33 33 32 32 32 31 31 30 30 29 29 28 28 27
29 29 28 28 29 29 30 31 31 32 33 33 34 35 35 36 37 38 39 39 39 39 39 39 39 39 40 41 42 43 43 42 42 42 42 42 43 43 43 43 43 43 43 43 43 44 44 44 43 43 43 43 43 42 42 42 42 42 41 41 41 40 40 39 38 37 37 36 36 35 34 33 33 32 32 32 31 30 30 30 29 29 28 28 27
30 29 29 29 29 29 30 30 31 32 32 33 34 35 35 36 37 38 39 39 39 40 40 40 40 40 41 42 43 44 44 44 44 44 44 44 44 44 44 44 44 44 44 44 44 44 44 44 44 44 43 43 43 42 42 42 42 42 42 41 41 41 40 39 38 38 37 37 36 35 34 34 33 32 32 31 31 30 30 30 30 29 28 28 28
30 30 30 30 30 30 30 30 31 31 32 32 33 34 34 35 36 37 38 39 39 39 40 41 41 42 42 43 44 44 45 45 45 45 45 46 46 45 45 45 45 45 45 45 45 45 45 45 44 44 44 43 43 42 42 42 42 42 42 42 41 41 40 39 39 38 37 37 36 35 35 34 33 32 32 31 31 30 30 30 30 29 29 28 28
31 31 31 31 30 30 30 30 31 31 31 31 32 33 33 34 35 36 37 38 39 39 40 40 41 42 43 44 45 45 46 46 46 46 46 47 47 46 46 46 46 46 46 45 45 45 45 45 45 44 44 44 43 43 42 42 42 42 42 42 41 41 40 39 39 38 37 37 36 35 34 33 33 32 32 31 31 30 30 30 30 30 29 29 28
30 30 31 31 31 31 31 31 31 32 32 32 32 32 33 34 35 35 36 37 38 39 40 40 41 42 43 44 45 46 46 47 47 47 47 47 47 47 47 47 47 46 46 46 46 46 46 45 45 45 45 44 44 43 42 42 42 42 42 41 41 41 40 40 39 38 38 37 36 35 34 33 33 32 32 31 31 31 30 30 30 30 29 29 28
30 30 30 30 31 31 31 31 31 32 32 33 33 33 33 34 34 35 35 36 37 38 39 40 41 41 42 43 44 45 46 47 47 48 48 48 47 48 48 48 48 47 47 47 46 46 46 45 45 45 45 44 44 43 43 43 42 42 42 41 41 41 41 40 39 38 38 37 36 35 34 33 33 33 32 32 31 31 31 30 30 30 29 29 29
31 31 30 31 31 31 31 31 32 32 32 33 34 34 34 35 35 35 35 36 36 37 38 39 40 41 42 42 43 44 45 46 47 47 48 48 48 48 48 48 48 48 47 47 47 46 46 46 45 45 45 45 44 43 43 43 43 42 42 41 41 41 41 40 40 39 38 37 36 35 34 34 33 33 33 33 32 32 31 31 30 30 29 29 29
32 32 32 32 32 32 32 32 32 32 32 33 33 34 35 36 36 36 36 36 37 37 38 38 39 40 41 42 43 44 44 45 46 47 47 48 48 48 48 48 48 48 48 47 47 46 46 46 46 46 45 45 44 44 44 44 44 43 42 42 42 41 41 41 40 39 38 37 36 35 35 34 34 34 34 33 33 33 32 31 31 30 30 30 29
Wind_Direction
257 253 249 246 245 243 242 241 240 239 238 238 237 236 236 235 234 234 233 232 231 230 229 229 229 227 227 228 227 226 225 225 227 227 227 229 229 230 230 230 231 231 231 231 230 230 230 231 233 237 240 242 242 244 247 250 252 252 252 252 253 256 259 262 265 268 271 273 276 279 279 280 282 283 285 286 288 291 294 296 298 299 300 301 302
264 259 253 249 246 244 243 241 240 239 237 236 236 235 235 235 234 233 232 230 229 229 229 229 228 227 227 228 227 226 225 225 226 227 228 229 229 230 231 230 229 228 228 227 227 228 229 230 233 236 237 239 240 243 247 249 250 250 250 251 252 255 259 261 263 267 272 274 277 280 280 281 283 283 284 287 289 291 294 296 297 299 300 300 301
269 264 258 253 248 245 243 241 240 238 237 236 235 234 234 234 234 233 232 230 229 229 229 228 227 226 227 228 227 227 225 225 226 228 228 229 228 229 229 227 225 225 224 224 225 227 228 230 232 233 234 237 239 243 246 248 247 247 248 250 252 255 259 260 263 267 272 275 278 280 281 282 283 284 286 288 290 292 294 295 297 298 299 300 301
274 269 263 256 251 247 244 241 239 237 236 235 234 233 232 232 232 232 231 230 229 228 227 227 226 225 225 227 227 227 226 226 226 227 227 228 226 226 225 223 222 222 223 223 224 225 227 229 230 231 232 236 239 242 245 245 245 246 248 251 252 255 259 261 264 268 272 275 278 279 281 283 285 286 287 289 291 292 294 296 297 298 299 300 301
278 274 268 260 253 248 244 241 238 236 235 234 233 231 230 230 230 230 230 229 229 227 226 224 223 223 223 225 225 224 224 225 225 225 225 226 224 222 221 220 221 221 221 222 224 226 227 228 229 230 232 235 238 241 243 243 244 246 249 251 252 255 259 262 266 270 272 274 277 280 282 284 286 287 288 290 292 293 295 296 297 298 299 300 300
281 278 272 264 255 249 244 241 238 235 234 233 232 230 228 227 228 228 228 228 228 227 225 224 223 222 222 223 222 221 221 223 223 222 222 221 219 218 218 219 220 220 221 224 225 227 227 226 227 230 232 235 238 240 241 241 244 246 248 250 252 255 258 263 267 271 273 274 277 280 282 284 287 288 289 290 293 294 296 297 298 299 299 300 302
285 281 275 267 258 250 244 240 237 234 232 232 230 228 227 226 225 226 227 227 227 226 225 224 223 222 221 221 220 220 219 220 219 218 217 216 215 215 216 217 218 220 223 224 223 224 225 226 228 230 233 236 238 239 240 242 244 246 248 250 252 255 259 263 267 270 273 275 278 281 283 285 288 289 290 292 293 295 296 297 298 299 300 302 303
289 284 277 269 260 252 244 239 236 233 231 230 229 227 226 225 224 223 224 225 225 225 225 224 223 222 221 219 219 218 218 217 217 215 213 213 213 213 215 217 219 221 221 220 221 223 225 227 229 232 235 236 237 238 240 243 244 246 248 250 253 256 260 264 267 271 273 276 279 282 284 287 289 290 291 292 293 294 296 297 299 300 301 303 304
292 286 278 270 262 254 246 240 235 232 230 228 227 226 225 224 223 222 222 222 223 223 223 222 222 221 220 220 219 218 217 216 214 213 213 212 213 214 217 219 219 218 217 217 220 222 225 228 230 232 234 235 236 238 240 243 245 246 248 250 253 257 261 264 268 271 274 277 280 283 286 288 289 290 291 291 293 295 296 298 300 301 303 304 305
295 287 280 272 264 256 248 241 235 231 229 227 225 225 224 223 222 221 220 220 220 220 220 221 221 221 220 220 219 218 218 216 212 210 211 212 213 215 218 218 217 216 216 217 220 223 225 228 230 231 232 234 235 237 240 242 244 247 250 252 255 258 260 264 268 271 275 278 281 284 287 288 289 289 291 292 293 294 296 298 300 302 303 304 305
298 290 282 275 267 258 250 243 236 231 228 226 224 223 223 222 221 220 219 218 219 219 219 219 220 220 219 219 218 218 218 217 213 210 210 211 212 214 215 215 215 217 218 219 221 223 225 228 230 231 232 234 236 238 240 242 244 247 251 253 256 260 262 266 269 273 276 279 283 285 287 289 290 290 291 292 293 294 296 299 300 302 303 304 306
302 295 287 278 269 261 252 244 237 231 227 225 223 222 221 221 220 219 218 217 217 218 218 219 219 219 218 218 217 217 217 217 215 212 211 211 212 213 214 214 215 217 218 219 222 224 226 229 231 232 234 235 238 240 241 243 244 247 251 253 257 261 265 268 271 273 277 280 284 286 288 289 290 290 291 292 294 296 298 300 300 301 303 304 307
308 300 292 283 273 264 254 244 236 231 226 224 222 221 220 219 219 218 217 216 216 216 217 218 217 218 218 217 217 216 216 216 215 213 213 212 212 214 215 216 216 218 220 221 223 225 227 230 231 233 235 237 239 242 243 245 246 248 251 255 258 262 265 268 271 274 278 282 285 287 288 288 289 290 291 293 295 297 298 300 301 302 304 306 308
314 307 298 288 276 265 255 242 234 230 226 223 220 219 218 218 218 217 216 215 214 214 215 216 216 216 217 216 216 217 217 217 215 214 213 213 213 215 217 218 219 221 222 224 226 227 229 232 233 235 237 239 241 243 244 245 247 250 253 257 260 263 265 269 272 276 280 283 285 286 286 287 288 290 291 292 295 297 299 300 301 303 306 308 309
320 316 306 294 280 267 255 242 233 229 225 221 218 217 216 216 216 216 215 214 214 213 213 214 215 216 216 216 216 216 216 216 215 214 213 213 215 217 219 220 221 222 224 226 229 231 233 235 237 238 239 241 242 242 243 245 248 251 255 258 261 264 267 271 275 278 281 283 284 285 286 287 289 291 291 292 295 298 299 300 303 305 307 309 310
324 322 313 300 285 270 257 243 232 226 222 218 216 214 214 214 214 215 214 214 213 213 213 213 214 215 215 215 216 217 217 216 215 215 214 214 216 217 219 221 222 224 227 230 231 234 236 237 239 239 240 241 242 242 244 247 250 253 256 259 262 265 269 273 276 279 281 282 282 284 286 287 288 289 290 292 295 297 300 303 305 306 308 309 310
325 326 321 308 292 273 256 243 231 222 218 215 214 212 212 212 213 214 214 213 213 213 212 213 214 215 215 216 216 217 218 217 216 215 215 215 217 219 221 223 225 227 230 231 232 234 236 237 238 238 239 241 241 242 245 248 251 254 256 259 263 267 270 273 276 277 279 280 281 283 285 285 287 289 291 293 295 297 301 304 305 307 309 310 312
325 328 327 316 299 278 256 241 229 220 216 214 213 212 211 211 212 212 213 212 212 212 212 213 215 215 215 216 217 218 218 217 215 216 216 217 219 221 222 224 226 229 231 231 233 234 235 235 236 238 240 241 242 243 245 248 252 254 256 260 263 266 269 272 274 276 277 279 280 281 283 284 286 288 291 293 295 298 301 303 305 307 309 310 312
323 326 328 322 306 283 259 240 227 219 215 213 213 212 211 210 211 211 212 211 211 212 212 213 215 216 215 217 218 218 218 217 216 216 217 218 220 222 223 224 227 229 230 230 232 234 235 235 236 238 241 241 242 243 245 248 252 255 257 260 262 265 269 271 272 274 276 277 279 280 283 285 287 289 291 293 295 298 301 304 305 307 308 310 311
321 324 326 326 313 288 260 240 227 219 215 213 212 212 211 210 210 210 210 210 211 211 211 212 215 215 214 215 217 217 218 217 216 217 218 220 221 221 222 225 226 227 228 229 231 233 234 236 238 239 240 241 242 244 246 248 252 255 258 259 262 265 268 269 270 271 274 277 279 281 283 285 288 290 292 295 297 299 302 304 306 307 309 311 312
317 320 323 325 319 295 263 240 227 219 214 212 211 211 210 210 209 209 209 210 210 209 209 212 215 213 212 213 215 216 217 217 217 217 219 220 219 219 222 225 226 226 227 229 231 233 234 237 238 238 239 241 242 244 246 248 252 256 258 260 262 264 266 267 269 271 274 276 278 280 283 285 289 292 294 296 299 300 302 305 307 309 311 312 312
313 314 316 320 320 305 270 242 227 219 215 212 210 210 210 209 209 209 209 209 209 208 208 211 212 210 210 212 213 214 215 216 217 217 218 219 218 219 223 226 225 225 227 229 232 234 235 237 238 238 239 240 242 244 246 248 252 255 257 259 261 262 264 267 268 269 272 275 277 280 283 286 289 292 295 297 299 301 303 306 308 310 311 312 312
310 309 307 309 313 308 278 246 229 220 215 212 211 210 210 210 210 210 209 209 208 206 207 210 210 209 210 212 213 214 215 216 217 216 217 218 219 221 223 225 225 226 229 230 232 234 236 238 239 238 239 241 242 244 247 249 252 254 256 257 259 261 263 265 266 268 271 274 277 281 284 287 289 292 295 297 299 301 304 307 308 310 311 312 312
306 304 299 294 293 289 271 246 231 222 216 213 212 212 212 211 210 210 209 208 206 206 208 209 209 209 211 212 213 215 216 217 217 216 216 218 220 221 223 224 225 227 230 231 233 235 236 238 238 239 240 241 243 245 247 250 252 253 254 256 259 260 262 263 265 268 272 275 278 282 284 287 290 292 295 297 299 301 304 306 308 309 311 312 312
298 297 292 285 280 273 254 233 225 220 215 213 212 212 212 211 210 209 208 207 206 206 208 208 208 210 212 212 214 216 216 216 216 216 217 219 221 222 223 223 225 228 230 232 234 235 237 238 238 239 241 242 244 246 249 250 251 252 254 257 259 259 261 263 266 270 273 277 280 283 285 288 290 292 294 296 298 301 303 305 306 308 309 311 312
289 287 283 277 271 262 247 228 218 212 211 210 210 210 209 208 207 205 205 205 206 207 207 207 208 210 212 213 215 216 215 215 216 217 218 220 222 223 223 224 226 228 230 233 234 235 236 237 239 240 242 243 245 248 250 250 251 252 254 256 257 259 261 264 267 271 275 278 281 283 286 288 290 292 293 295 297 300 302 303 305 306 308 309 310
280 277 273 268 260 251 241 230 218 209 205 205 204 204 204 203 203 203 204 204 205 205 207 209 210 212 212 213 214 214 214 215 217 218 220 222 223 223 224 225 226 227 230 233 233 234 236 238 240 242 244 245 247 248 250 251 252 254 255 255 256 259 262 266 269 273 277 279 282 284 286 288 290 291 292 294 297 298 299 301 303 305 306 307 308
271 268 264 260 254 246 238 230 221 211 205 204 204 204 204 203 204 206 207 206 206 206 208 210 211 212 213 214 215 215 216 218 220 221 222 223 223 222 224 225 226 228 231 232 233 234 237 239 241 244 246 247 248 249 250 252 252 253 253 253 256 261 264 268 271 274 277 280 282 284 286 287 288 288 290 293 295 296 297 299 301 303 304 306 307
264 262 258 254 250 244 237 232 225 218 211 207 207 209 209 210 210 210 210 210 210 211 211 210 211 213 214 215 216 216 217 220 222 223 223 222 222 223 224 226 228 230 231 231 233 236 238 240 242 244 246 246 247 248 249 249 250 250 251 254 258 262 265 268 271 273 276 279 280 282 284 285 286 287 289 292 293 294 296 297 299 301 303 305 306
260 257 254 251 247 243 238 233 228 224 218 212 210 210 211 212 213 212 212 212 212 212 213 213 213 214 215 216 216 217 219 221 222 222 222 222 222 224 225 227 229 231 231 232 235 238 240 242 243 244 245 245 245 246 248 248 249 251 253 256 259 263 265 268 270 272 275 278 279 281 282 283 284 286 289 290 291 293 294 295 298 301 302 303 305
257 255 252 249 245 242 239 235 231 228 225 220 216 213 212 213 213 213 213 212 212 212 213 214 215 215 216 218 219 219 221 222 221 221 222 222 223 225 226 228 229 230 231 232 236 238 240 242 243 244 245 245 245 246 248 249 251 253 255 258 260 263 265 267 269 272 274 276 278 279 280 281 283 286 287 288 289 292 293 295 297 299 301 302 303
254 254 252 248 244 241 239 237 233 231 229 226 223 220 217 216 216 216 215 214 213 214 215 215 216 217 218 220 221 222 223 223 223 223 223 224 225 226 227 229 230 231 231 233 236 238 240 241 243 245 246 246 247 248 249 250 252 254 256 259 261 262 264 267 269 271 272 273 275 277 279 281 283 284 285 286 289 291 293 294 296 298 300 301 302
251 251 250 248 245 241 239 238 235 233 232 230 228 225 222 221 219 219 218 217 217 217 217 218 219 219 221 222 223 224 224 225 225 225 226 227 228 228 229 230 230 231 232 234 237 240 241 243 244 245 245 246 248 249 250 251 253 255 257 259 261 263 265 267 268 269 270 271 273 275 278 280 282 283 284 286 288 290 292 294 296 298 299 299 300
249 249 248 246 245 243 241 239 238 236 234 233 232 230 228 226 224 222 220 220 220 221 221 221 221 222 223 224 225 225 226 227 227 228 228 228 229 229 230 231 232 232 234 237 239 241 242 243 244 244 245 247 248 250 250 251 253 255 257 259 261 263 264 265 266 267 269 271 272 275 277 279 281 282 284 286 288 290 291 293 295 296 297 297 298
249 249 247 245 244 244 242 241 239 238 237 236 235 234 233 231 229 227 224 223 223 223 224 224 224 224 225 226 226 227 228 228 229 229 229 229 230 230 231 233 234 235 237 239 241 242 242 242 243 243 246 248 249 250 251 251 253 254 257 258 260 261 261 262 263 265 268 270 272 274 276 278 279 281 283 285 287 289 290 292 293 294 295 296 297
249 249 247 245 244 244 243 242 241 240 239 238 237 236 235 234 233 232 230 229 228 227 227 228 228 228 228 228 229 229 229 230 230 230 230 231 231 231 233 235 236 237 238 239 240 240 241 242 243 244 246 248 249 250 251 251 253 254 256 257 258 258 259 260 262 264 267 269 271 273 275 277 278 280 282 284 285 287 289 291 292 293 294 295 296
248 248 247 246 245 244 244 243 242 241 240 239 238 237 237 236 236 235 235 234 233 232 232 232 232 231 232 232 231 231 232 232 232 232 232 232 232 233 235 237 237 238 239 239 240 240 241 242 243 245 246 248 249 250 250 251 253 254 255 255 256 256 258 260 262 263 266 268 271 273 275 276 277 279 281 283 285 287 289 290 291 292 293 293 295
247 247 247 246 244 244 243 243 242 242 241 241 240 239 238 238 237 237 237 237 237 237 236 236 235 235 235 235 234 234 234 234 234 234 234 234 234 236 237 237 238 238 239 240 240 241 242 243 244 245 247 248 248 249 250 251 252 253 253 254 254 256 257 259 261 263 265 268 270 272 274 275 276 277 279 282 283 285 287 288 289 290 291 292 293
247 247 246 245 245 244 244 243 243 242 242 241 241 240 240 240 239 239 239 239 239 239 239 239 238 238 238 237 236 235 235 236 236 236 236 236 236 237 237 238 238 239 240 241 241 242 243 244 245 247 247 248 249 249 250 251 252 252 252 252 254 255 256 258 260 262 264 266 269 271 272 273 275 277 279 281 282 284 285 286 287 289 290 291 292
246 246 246 246 246 245 245 244 244 243 242 242 242 241 241 241 241 241 241 240 240 241 240 240 240 240 239 238 237 236 236 237 238 238 238 237 238 238 239 239 240 241 241 242 242 243 244 246 247 247 248 248 249 249 250 250 250 250 251 252 253 254 256 257 259 261 263 266 268 270 271 272 274 276 278 280 281 282 283 284 286 287 288 289 291
248 247 246 246 246 247 246 246 245 244 244 243 243 242 242 242 242 242 242 241 241 241 241 241 242 241 240 239 238 237 238 239 239 239 239 239 239 240 240 241 241 242 242 243 243 244 245 246 247 247 248 248 248 248 249 249 249 250 251 251 252 254 255 257 259 261 263 265 268 269 271 271 273 275 277 278 280 281 282 283 284 286 287 288 289
249 248 247 246 246 247 247 247 246 246 245 245 245 244 244 243 243 243 243 243 243 242 242 242 243 242 242 240 239 238 240 241 240 240 240 241 241 241 242 242 243 243 243 244 244 245 246 246 247 247 247 247 248 248 248 248 249 249 250 251 252 253 254 256 259 261 262 265 267 268 269 271 272 274 276 277 279 280 281 281 282 284 285 286 287
248 248 248 247 247 248 249 249 248 248 247 247 247 246 246 245 244 244 244 244 244 244 244 244 243 243 243 242 240 240 241 242 242 242 242 242 242 242 242 243 243 244 244 245 246 246 247 247 247 247 247 248 248 248 248 248 249 249 250 250 251 253 254 257 259 260 262 264 266 267 268 270 271 273 275 276 277 278 279 279 280 282 283 284 285
248 248 248 248 248 248 249 250 250 250 249 249 249 248 248 247 246 246 245 246 246 246 246 246 245 244 244 243 241 241 242 243 243 244 243 243 243 243 243 243 244 244 245 245 246 247 247 247 247 247 248 249 249 249 248 248 249 249 250 250 252 253 255 257 258 260 262 263 265 266 267 268 270 272 273 275 276 276 276 277 278 279 281 281 282
248 249 249 249 249 249 249 250 250 251 251 251 250 250 250 249 249 248 247 247 247 247 247 247 247 246 245 244 243 243 243 244 244 244 245 245 245 244 244 244 244 245 245 246 246 246 246 246 247 247 248 248 248 248 248 248 249 249 250 251 252 254 256 257 259 260 261 262 263 265 266 267 269 270 272 273 274 274 274 275 276 277 278 279 280
249 249 250 250 250 250 250 250 251 251 252 252 252 252 251 251 250 250 249 249 249 249 249 249 249 248 247 246 245 245 245 245 245 245 245 245 246 245 245 245 245 245 246 246 246 246 246 246 246 247 247 247 248 248 248 248 249 250 250 252 253 255 256 257 258 260 261 261 262 264 265 267 268 269 270 271 272 272 272 273 274 275 276 277 278
250 251 251 252 252 252 252 252 252 252 252 253 253 253 252 252 252 252 251 251 250 250 250 250 250 250 249 248 248 247 247 247 247 247 247 246 246 246 246 246 246 246 246 246 246 246 245 245 246 246 247 247 247 247 248 249 249 250 251 252 253 255 256 256 257 258 259 260 261 263 264 265 267 267 268 269 270 270 271 272 273 274 275 276 276
251 251 252 252 253 253 254 254 253 253 253 254 254 254 253 253 253 253 253 253 252 252 252 252 251 251 251 250 249 249 248 248 248 248 248 248 247 247 247 246 246 246 246 246 245 245 245 245 246 246 246 246 247 247 248 249 250 251 252 252 253 253 254 254 256 256 257 258 260 262 263 264 265 266 266 266 267 268 269 270 271 272 273 274 275
251 251 252 252 253 254 254 255 255 255 255 255 255 255 255 255 254 255 254 254 254 254 254 253 253 252 252 252 251 250 249 249 249 249 249 248 248 247 247 246 246 246 245 245 245 244 244 245 245 245 246 246 247 248 248 249 250 251 252 252 252 252 252 253 254 255 255 257 259 261 262 263 263 264 264 264 264 266 267 268 269 270 271 272 273
253 252 252 253 253 254 255 255 256 257 257 257 257 257 256 256 256 256 256 255 255 255 256 255 255 254 253 253 252 251 250 250 249 249 249 249 248 247 247 246 246 245 245 245 244 244 244 245 245 245 246 246 247 248 249 250 251 252 252 252 251 251 251 251 252 253 254 256 258 260 261 261 262 262 262 262 263 264 265 266 267 268 269 270 271
254 254 254 254 254 255 255 256 256 257 257 258 258 258 258 257 257 257 257 257 257 257 257 257 256 256 255 254 253 252 252 251 251 250 250 249 248 248 247 246 246 245 245 244 244 244 244 244 245 245 246 246 247 248 250 250 251 252 251 251 250 250 250 250 251 252 253 255 257 259 260 260 260 260 261 261 261 262 262 263 265 266 267 268 269